Regional Weather Roundup
Issued by NWS

Home | Current Version | Previous Version | Text Only | Print | Product List | Glossary On
Versions: 1 2 3 4 5 6 7 8 9 10 11 12 13 14 15 16 17 18 19 20 21 22 23 24 25 26 27 28 29 30 31 32 33 34 35 36 37 38 39 40 41 42 43 44 45 46 47 48 49 50
000
ASUS43 KLSX 201507
RWRMO

WEATHER SUMMARY FOR MISSOURI
NATIONAL WEATHER SERVICE SPRINGFIELD MO
1000 AM CDT FRI OCT 20 2017

NOTE: "FAIR" INDICATES FEW OR NO CLOUDS BELOW 12,000 FEET WITH NO
       SIGNIFICANT WEATHER AND/OR OBSTRUCTIONS TO VISIBILITY.
       CURRENT SKY AND/OR WEATHER CONDITIONS ARE NOT AVAILABLE FOR
       CHILLICOTHE AND FARMINGTON.

MOZ001>031-035>038-043-044-053-054-201600-
...NORTHERN AND WESTERN MISSOURI...

CITY           SKY/WX    TMP DP  RH WIND       PRES   REMARKS
KANSAS CTY INT PTSUNNY   65  55  70 S15       30.07S
KANSAS C DTWN  PTSUNNY   64  55  72 SW12      30.08S
LEE`S SUMMIT   CLOUDY    63  54  72 S15G25    30.09F
ST JOSEPH      MOSUNNY   63  55  75 S9G18     30.05S
CHILLICOTHE      N/A     59  54  83 S7        30.11S
KIRKSVILLE     SUNNY     63  54  72 SW10      30.13S

$$
MOZ066>068-077>081-088>096-101>105-201600-
...SOUTHWEST MISSOURI...

CITY           SKY/WX    TMP DP  RH WIND       PRES   REMARKS
SPRINGFIELD    CLOUDY    62  53  72 S12       30.17R
JOPLIN         CLOUDY    64  56  75 S12       30.14R
BRANSON        PTSUNNY   63  50  63 SE7       30.21R

$$
MOZ032>034-039>042-045>050-055>058-069>072-201600-
...CENTRAL MISSOURI...

CITY           SKY/WX    TMP DP  RH WIND       PRES   REMARKS
COLUMBIA       CLOUDY    59  54  83 S9        30.16F
JEFFERSON CITY CLOUDY    57  51  80 SE7       30.17S
ROLLA          PTSUNNY   63  51  65 S10       30.19F
SEDALIA        MOSUNNY   65  55  70 S12       30.14S
WHITEMAN AFB   MOSUNNY   62  55  75 S15       30.08S
WARRENSBURG    MOSUNNY   61  52  72 S7G16     30.11S
OSAGE BEACH    MOSUNNY   58  52  80 S8        30.18S

$$
MOZ051-052-059>065-201600-
...EAST CENTRAL MISSOURI...

CITY           SKY/WX    TMP DP  RH WIND       PRES   REMARKS
ST LOUIS INTL  CLOUDY    65  53  65 SE8       30.23S
SPIRIT OF STL  MOSUNNY   63  55  75 E5        30.21F
ST CHARLES     SUNNY     65  54  67 SE8       30.21F

$$
MOZ072>076-082>087-097>100-106>115-201600-
...SOUTH CENTRAL AND SOUTHEAST MISSOURI...

CITY           SKY/WX    TMP DP  RH WIND       PRES   REMARKS
CAPE GIRARDEAU SUNNY     64  53  67 VRB6      30.26S
FARMINGTON     SUNNY     66  53  63 S8        30.23F
POPLAR BLUFF   MOSUNNY   58  54  86 CALM      30.25S
WEST PLAINS    CLOUDY    59  51  75 SE5       30.22S

$$



USA.gov is the U.S. government's official web portal to all federal, state and local government web resources and services.